Time,TemperatureF,DewpointF,PressureIn,WindDirection,WindDirectionDegrees,WindSpeedMPH,WindSpeedGustMPH,Humidity,HourlyPrecipIn,Conditions,Clouds,dailyrainin,SoftwareType,DateUTC
2013-09-20 00:03:00,67.5,52.2,29.85,North,0,0.0,0.0,58,0.08,-RA,OVC,0.00,WeatherDisplay:10.37,2013-09-20 05:03:00,
2013-09-20 00:08:00,67.5,52.2,29.85,North,0,0.0,0.0,58,0.04,-RA,OVC,0.00,WeatherDisplay:10.37,2013-09-20 05:08:00,
2013-09-20 00:13:00,67.3,52.0,29.85,North,0,0.0,0.0,58,0.04,-RA,OVC,0.00,WeatherDisplay:10.37,2013-09-20 05:13:00,
2013-09-20 00:18:00,67.3,52.5,29.85,North,0,0.0,0.0,59,0.04,-RA,OVC,0.00,WeatherDisplay:10.37,2013-09-20 05:18:00,
2013-09-20 00:23:00,67.3,52.5,29.85,North,0,0.0,0.0,59,0.04,-RA,OVC,0.00,WeatherDisplay:10.37,2013-09-20 05:23:00,
2013-09-20 00:28:00,67.3,52.5,29.85,North,0,0.0,0.0,59,0.04,-RA,OVC,0.00,WeatherDisplay:10.37,2013-09-20 05:28:00,
2013-09-20 00:33:00,67.3,52.5,29.82,North,0,0.0,0.0,59,0.08,-RA,OVC,0.04,WeatherDisplay:10.37,2013-09-20 05:33:00,
2013-09-20 00:38:00,67.3,52.5,29.82,North,0,0.0,0.0,59,0.08,-RA,OVC,0.04,WeatherDisplay:10.37,2013-09-20 05:38:00,
2013-09-20 00:43:00,67.3,52.9,29.82,North,0,0.0,0.0,60,0.04,-RA,OVC,0.04,WeatherDisplay:10.37,2013-09-20 05:43:00,
2013-09-20 00:48:00,67.3,52.9,29.82,North,0,0.0,0.0,60,0.04,-RA,OVC,0.04,WeatherDisplay:10.37,2013-09-20 05:48:00,
2013-09-20 00:53:00,67.3,52.9,29.82,North,0,0.0,0.0,60,0.04,-RA,OVC,0.04,WeatherDisplay:10.37,2013-09-20 05:53:00,
2013-09-20 00:58:00,67.3,52.9,29.82,North,0,0.0,0.0,60,0.04,-RA,OVC,0.04,WeatherDisplay:10.37,2013-09-20 05:58:00,
2013-09-20 01:03:00,67.3,52.9,29.82,North,0,0.0,0.0,60,0.04,-RA,OVC,0.04,WeatherDisplay:10.37,2013-09-20 06:03:00,
2013-09-20 01:08:00,67.3,53.4,29.82,North,0,0.0,0.0,61,0.04,-RA,OVC,0.04,WeatherDisplay:10.37,2013-09-20 06:08:00,
2013-09-20 01:13:00,67.3,53.4,29.82,North,0,0.0,0.0,61,0.04,-RA,OVC,0.04,WeatherDisplay:10.37,2013-09-20 06:13:00,
2013-09-20 01:18:00,67.3,53.4,29.82,North,0,0.0,0.0,61,0.04,-RA,OVC,0.04,WeatherDisplay:10.37,2013-09-20 06:18:00,
2013-09-20 01:23:00,67.1,53.2,29.82,North,0,0.0,0.0,61,0.04,-RA,OVC,0.04,WeatherDisplay:10.37,2013-09-20 06:23:00,
2013-09-20 01:28:00,67.1,53.2,29.82,North,0,0.0,0.0,61,0.04,-RA,OVC,0.04,WeatherDisplay:10.37,2013-09-20 06:28:00,
2013-09-20 01:33:00,67.1,53.2,29.82,North,0,0.0,0.0,61,0.00,-RA,OVC,0.04,WeatherDisplay:10.37,2013-09-20 06:33:00,
2013-09-20 01:38:00,66.9,53.5,29.82,North,0,0.0,0.0,62,0.00,-RA,OVC,0.04,WeatherDisplay:10.37,2013-09-20 06:38:00,
2013-09-20 01:43:00,66.9,53.5,29.82,North,0,0.0,0.0,62,0.00,-RA,OVC,0.04,WeatherDisplay:10.37,2013-09-20 06:43:00,
2013-09-20 01:48:00,66.9,53.5,29.82,North,0,0.0,0.0,62,0.00,-RA,OVC,0.04,WeatherDisplay:10.37,2013-09-20 06:48:00,
2013-09-20 01:53:00,66.7,53.3,29.82,North,0,0.0,0.0,62,0.00,-RA,OVC,0.04,WeatherDisplay:10.37,2013-09-20 06:53:00,
2013-09-20 01:58:00,66.7,53.3,29.79,North,0,0.0,0.0,62,0.00,-RA,OVC,0.04,WeatherDisplay:10.37,2013-09-20 06:58:00,
2013-09-20 02:03:00,66.7,53.3,29.79,North,0,0.0,0.0,62,0.00,CLR,OVC,0.04,WeatherDisplay:10.37,2013-09-20 07:03:00,
2013-09-20 02:08:00,66.7,53.3,29.79,North,0,0.0,0.0,62,0.00,CLR,OVC,0.04,WeatherDisplay:10.37,2013-09-20 07:08:00,
2013-09-20 02:13:00,66.7,53.3,29.79,North,0,0.0,0.0,62,0.00,CLR,OVC,0.04,WeatherDisplay:10.37,2013-09-20 07:13:00,
2013-09-20 02:18:00,66.7,53.7,29.82,North,0,0.0,0.0,63,0.00,CLR,OVC,0.04,WeatherDisplay:10.37,2013-09-20 07:18:00,
2013-09-20 02:23:00,66.6,53.1,29.82,North,0,0.0,0.0,62,0.00,CLR,OVC,0.04,WeatherDisplay:10.37,2013-09-20 07:23:00,
2013-09-20 02:28:00,66.6,53.6,29.82,North,0,0.0,0.0,63,0.00,CLR,OVC,0.04,WeatherDisplay:10.37,2013-09-20 07:28:00,
2013-09-20 02:33:00,66.6,53.6,29.82,North,0,0.0,0.0,63,0.00,CLR,OVC,0.04,WeatherDisplay:10.37,2013-09-20 07:33:00,
2013-09-20 02:38:00,66.4,53.4,29.82,North,0,0.0,0.0,63,0.00,CLR,OVC,0.04,WeatherDisplay:10.37,2013-09-20 07:38:00,
2013-09-20 02:43:00,66.4,53.4,29.82,North,0,0.0,0.0,63,0.00,CLR,OVC,0.04,WeatherDisplay:10.37,2013-09-20 07:43:00,
2013-09-20 02:48:00,66.4,53.4,29.82,North,0,0.0,0.0,63,0.00,CLR,OVC,0.04,WeatherDisplay:10.37,2013-09-20 07:48:00,
2013-09-20 02:53:00,66.2,53.2,29.82,North,0,0.0,0.0,63,0.00,CLR,OVC,0.04,WeatherDisplay:10.37,2013-09-20 07:53:00,
2013-09-20 02:58:00,66.2,53.2,29.82,North,0,0.0,0.0,63,0.00,CLR,OVC,0.04,WeatherDisplay:10.37,2013-09-20 07:58:00,
2013-09-20 03:03:00,66.4,53.8,29.82,North,0,0.0,0.0,64,0.00,CLR,OVC,0.04,WeatherDisplay:10.37,2013-09-20 08:03:00,
2013-09-20 03:08:00,66.4,53.8,29.82,North,0,0.0,0.0,64,0.00,CLR,OVC,0.04,WeatherDisplay:10.37,2013-09-20 08:08:00,
2013-09-20 03:13:00,66.6,54.0,29.82,North,0,0.0,0.0,64,0.00,CLR,OVC,0.04,WeatherDisplay:10.37,2013-09-20 08:13:00,
2013-09-20 03:18:00,66.6,54.0,29.82,North,0,0.0,0.0,64,0.00,CLR,OVC,0.04,WeatherDisplay:10.37,2013-09-20 08:18:00,
2013-09-20 03:23:00,66.6,54.0,29.82,North,0,0.0,0.0,64,0.00,CLR,OVC,0.04,WeatherDisplay:10.37,2013-09-20 08:23:00,
2013-09-20 03:28:00,66.6,54.0,29.82,North,0,0.0,0.0,64,0.00,CLR,OVC,0.04,WeatherDisplay:10.37,2013-09-20 08:28:00,
2013-09-20 03:33:00,66.4,53.8,29.82,North,0,0.0,0.0,64,0.00,BKN,OVC,0.04,WeatherDisplay:10.37,2013-09-20 08:33:00,
2013-09-20 03:38:00,66.4,53.8,29.82,North,0,0.0,0.0,64,0.00,BKN,OVC,0.04,WeatherDisplay:10.37,2013-09-20 08:38:00,
2013-09-20 03:43:00,66.6,54.4,29.82,North,0,0.0,0.0,65,0.00,BKN,OVC,0.04,WeatherDisplay:10.37,2013-09-20 08:43:00,
2013-09-20 03:48:00,66.6,54.4,29.82,North,0,0.0,0.0,65,0.00,OVC,,0.04,WeatherDisplay:10.37,2013-09-20 08:48:00,
2013-09-20 03:53:00,66.6,54.4,29.82,North,0,0.0,0.0,65,0.00,OVC,,0.04,WeatherDisplay:10.37,2013-09-20 08:53:00,
2013-09-20 03:58:00,66.6,54.4,29.82,North,0,0.0,0.0,65,0.00,OVC,,0.04,WeatherDisplay:10.37,2013-09-20 08:58:00,
2013-09-20 04:03:00,66.6,54.4,29.82,North,0,0.0,0.0,65,0.00,OVC,,0.04,WeatherDisplay:10.37,2013-09-20 09:03:00,
2013-09-20 04:08:00,66.6,54.4,29.82,North,0,0.0,0.0,65,0.00,OVC,,0.04,WeatherDisplay:10.37,2013-09-20 09:08:00,
2013-09-20 04:13:00,66.6,54.4,29.79,North,0,0.0,0.0,65,0.00,OVC,,0.04,WeatherDisplay:10.37,2013-09-20 09:13:00,
2013-09-20 04:18:00,66.6,54.4,29.79,North,0,0.0,0.0,65,0.00,OVC,,0.04,WeatherDisplay:10.37,2013-09-20 09:18:00,
2013-09-20 04:23:00,66.7,55.0,29.79,North,0,0.0,0.0,66,0.00,OVC,,0.04,WeatherDisplay:10.37,2013-09-20 09:23:00,
2013-09-20 04:28:00,66.7,55.0,29.82,North,0,0.0,0.0,66,0.00,OVC,,0.04,WeatherDisplay:10.37,2013-09-20 09:28:00,
2013-09-20 04:33:00,66.7,55.0,29.82,North,0,0.0,0.0,66,0.00,OVC,,0.04,WeatherDisplay:10.37,2013-09-20 09:33:00,
2013-09-20 04:38:00,66.7,55.0,29.82,North,0,0.0,0.0,66,0.00,OVC,,0.04,WeatherDisplay:10.37,2013-09-20 09:38:00,
2013-09-20 04:43:00,66.7,55.0,29.82,North,0,0.0,0.0,66,0.00,OVC,,0.04,WeatherDisplay:10.37,2013-09-20 09:43:00,
2013-09-20 04:48:00,66.7,55.0,29.82,North,0,0.0,0.0,66,0.00,OVC,,0.04,WeatherDisplay:10.37,2013-09-20 09:48:00,
2013-09-20 04:53:00,66.7,55.0,29.82,North,0,0.0,0.0,66,0.00,OVC,,0.04,WeatherDisplay:10.37,2013-09-20 09:53:00,
2013-09-20 04:58:00,66.7,55.0,29.82,North,0,0.0,0.0,66,0.00,OVC,,0.04,WeatherDisplay:10.37,2013-09-20 09:58:00,
2013-09-20 05:03:00,66.7,55.4,29.82,North,0,0.0,0.0,67,0.00,OVC,,0.04,WeatherDisplay:10.37,2013-09-20 10:03:00,
2013-09-20 05:08:00,66.7,55.4,29.82,North,0,0.0,0.0,67,0.00,OVC,,0.04,WeatherDisplay:10.37,2013-09-20 10:08:00,
2013-09-20 05:13:00,66.7,55.4,29.82,North,0,0.0,0.0,67,0.00,OVC,,0.04,WeatherDisplay:10.37,2013-09-20 10:13:00,
2013-09-20 05:18:00,66.7,55.4,29.82,North,0,0.0,0.0,67,0.00,OVC,,0.04,WeatherDisplay:10.37,2013-09-20 10:18:00,
2013-09-20 05:23:00,66.7,55.4,29.82,North,0,0.0,0.0,67,0.00,OVC,,0.04,WeatherDisplay:10.37,2013-09-20 10:23:00,
2013-09-20 05:28:00,66.7,55.4,29.82,North,0,0.0,0.0,67,0.00,OVC,,0.04,WeatherDisplay:10.37,2013-09-20 10:28:00,
2013-09-20 05:33:00,66.7,55.4,29.82,North,0,0.0,0.0,67,0.00,OVC,,0.04,WeatherDisplay:10.37,2013-09-20 10:33:00,
2013-09-20 05:38:00,66.6,55.3,29.82,North,0,0.0,0.0,67,0.00,OVC,,0.04,WeatherDisplay:10.37,2013-09-20 10:38:00,
2013-09-20 05:43:00,66.6,55.3,29.82,North,0,0.0,0.0,67,0.00,OVC,,0.04,WeatherDisplay:10.37,2013-09-20 10:43:00,
2013-09-20 05:48:00,66.6,55.3,29.82,North,0,0.0,0.0,67,0.00,OVC,,0.04,WeatherDisplay:10.37,2013-09-20 10:48:00,
2013-09-20 05:53:00,66.6,55.7,29.82,North,0,0.0,0.0,68,0.00,OVC,,0.04,WeatherDisplay:10.37,2013-09-20 10:53:00,
2013-09-20 05:58:00,66.6,55.7,29.85,North,0,0.0,0.0,68,0.00,OVC,,0.04,WeatherDisplay:10.37,2013-09-20 10:58:00,
2013-09-20 06:03:00,66.6,55.7,29.85,North,0,0.0,0.0,68,0.00,OVC,,0.04,WeatherDisplay:10.37,2013-09-20 11:03:00,
2013-09-20 06:08:00,66.6,55.7,29.85,North,0,0.0,0.0,68,0.00,OVC,,0.04,WeatherDisplay:10.37,2013-09-20 11:08:00,
2013-09-20 06:13:00,66.6,55.7,29.85,North,0,0.0,0.0,68,0.00,OVC,,0.04,WeatherDisplay:10.37,2013-09-20 11:13:00,
2013-09-20 06:18:00,66.6,55.7,29.85,North,0,0.0,0.0,68,0.00,OVC,,0.04,WeatherDisplay:10.37,2013-09-20 11:18:00,
2013-09-20 06:23:00,66.4,55.5,29.85,North,0,0.0,0.0,68,0.00,OVC,,0.04,WeatherDisplay:10.37,2013-09-20 11:23:00,
2013-09-20 06:28:00,66.4,55.5,29.85,North,0,0.0,0.0,68,0.00,OVC,,0.04,WeatherDisplay:10.37,2013-09-20 11:28:00,
2013-09-20 06:33:00,66.4,55.5,29.85,North,0,0.0,0.0,68,0.00,OVC,,0.04,WeatherDisplay:10.37,2013-09-20 11:33:00,
2013-09-20 06:38:00,66.4,55.5,29.85,North,0,0.0,0.0,68,0.00,OVC,,0.04,WeatherDisplay:10.37,2013-09-20 11:38:00,
2013-09-20 06:43:00,66.4,55.5,29.85,North,0,0.0,0.0,68,0.00,OVC,,0.04,WeatherDisplay:10.37,2013-09-20 11:43:00,
2013-09-20 06:48:00,66.2,55.3,29.85,North,0,0.0,0.0,68,0.00,OVC,,0.04,WeatherDisplay:10.37,2013-09-20 11:48:00,
2013-09-20 06:53:00,66.2,55.3,29.85,North,0,0.0,0.0,68,0.00,OVC,,0.04,WeatherDisplay:10.37,2013-09-20 11:53:00,
2013-09-20 06:58:00,66.2,55.3,29.85,North,0,0.0,0.0,68,0.00,OVC,,0.04,WeatherDisplay:10.37,2013-09-20 11:58:00,
2013-09-20 07:03:00,66.0,55.6,29.85,North,0,0.0,0.0,69,0.00,OVC,,0.04,WeatherDisplay:10.37,2013-09-20 12:03:00,
2013-09-20 07:08:00,66.0,55.6,29.85,North,0,0.0,0.0,69,0.00,OVC,,0.04,WeatherDisplay:10.37,2013-09-20 12:08:00,
2013-09-20 07:13:00,65.8,55.0,29.85,North,0,0.0,0.0,68,0.00,OVC,,0.04,WeatherDisplay:10.37,2013-09-20 12:13:00,
2013-09-20 07:18:00,65.7,55.2,29.85,North,0,0.0,0.0,69,0.00,OVC,,0.04,WeatherDisplay:10.37,2013-09-20 12:18:00,
2013-09-20 07:23:00,65.7,55.2,29.85,North,0,0.0,0.0,69,0.00,OVC,,0.04,WeatherDisplay:10.37,2013-09-20 12:23:00,
2013-09-20 07:28:00,65.5,55.0,29.85,North,0,0.0,0.0,69,0.00,OVC,,0.04,WeatherDisplay:10.37,2013-09-20 12:28:00,
2013-09-20 07:33:00,65.5,55.0,29.85,North,0,0.0,0.0,69,0.00,OVC,,0.04,WeatherDisplay:10.37,2013-09-20 12:33:00,
2013-09-20 07:38:00,65.1,54.3,29.85,North,0,0.0,0.0,68,0.00,OVC,,0.04,WeatherDisplay:10.37,2013-09-20 12:38:00,
2013-09-20 07:43:00,64.8,53.9,29.85,North,0,0.0,0.0,68,0.00,OVC,,0.04,WeatherDisplay:10.37,2013-09-20 12:43:00,
2013-09-20 07:48:00,64.4,53.6,29.85,North,0,0.0,0.0,68,0.00,OVC,,0.04,WeatherDisplay:10.37,2013-09-20 12:48:00,
2013-09-20 07:53:00,64.0,53.3,29.85,North,0,0.0,0.0,68,0.00,OVC,,0.04,WeatherDisplay:10.37,2013-09-20 12:53:00,
2013-09-20 07:58:00,63.9,53.5,29.88,North,0,0.0,0.0,69,0.00,OVC,,0.04,WeatherDisplay:10.37,2013-09-20 12:58:00,
2013-09-20 08:03:00,63.9,53.5,29.88,North,0,0.0,0.0,69,0.00,BKN,OVC,0.04,WeatherDisplay:10.37,2013-09-20 13:03:00,
2013-09-20 08:08:00,63.9,53.9,29.88,North,0,0.0,0.0,70,0.00,BKN,OVC,0.04,WeatherDisplay:10.37,2013-09-20 13:08:00,
2013-09-20 08:13:00,64.0,54.1,29.88,North,0,0.0,0.0,70,0.00,BKN,OVC,0.04,WeatherDisplay:10.37,2013-09-20 13:13:00,
2013-09-20 08:18:00,64.2,54.2,29.88,North,0,0.0,0.0,70,0.00,BKN,OVC,0.04,WeatherDisplay:10.37,2013-09-20 13:18:00,
2013-09-20 08:23:00,64.2,54.2,29.88,North,0,0.0,0.0,70,0.00,BKN,OVC,0.04,WeatherDisplay:10.37,2013-09-20 13:23:00,
2013-09-20 08:28:00,63.7,53.3,29.88,North,0,0.0,0.0,69,0.00,BKN,OVC,0.04,WeatherDisplay:10.37,2013-09-20 13:28:00,
2013-09-20 08:33:00,63.3,53.0,29.88,North,0,0.0,0.0,69,0.00,BKN,OVC,0.04,WeatherDisplay:10.37,2013-09-20 13:33:00,
2013-09-20 08:38:00,63.0,52.2,29.88,North,0,0.0,0.0,68,0.00,BKN,OVC,0.04,WeatherDisplay:10.37,2013-09-20 13:38:00,
2013-09-20 08:43:00,63.0,52.6,29.88,North,0,0.0,0.0,69,0.00,BKN,OVC,0.04,WeatherDisplay:10.37,2013-09-20 13:43:00,
2013-09-20 08:48:00,63.1,52.8,29.88,North,0,0.0,0.0,69,0.00,BKN,OVC,0.04,WeatherDisplay:10.37,2013-09-20 13:48:00,
2013-09-20 08:53:00,63.1,52.8,29.88,North,0,0.0,0.0,69,0.00,BKN,OVC,0.04,WeatherDisplay:10.37,2013-09-20 13:53:00,
2013-09-20 08:58:00,63.1,52.8,29.88,North,0,0.0,0.0,69,0.00,BKN,OVC,0.04,WeatherDisplay:10.37,2013-09-20 13:58:00,
2013-09-20 09:03:00,63.3,53.0,29.88,North,0,0.0,0.0,69,0.00,BKN,OVC,0.04,WeatherDisplay:10.37,2013-09-20 14:03:00,
2013-09-20 09:08:00,63.3,53.0,29.88,North,0,0.0,0.0,69,0.00,BKN,OVC,0.04,WeatherDisplay:10.37,2013-09-20 14:08:00,
2013-09-20 09:13:00,63.3,53.0,29.88,North,0,0.0,0.0,69,0.00,BKN,OVC,0.04,WeatherDisplay:10.37,2013-09-20 14:13:00,
2013-09-20 09:18:00,63.3,52.6,29.88,North,0,0.0,0.0,68,0.00,BKN,OVC,0.04,WeatherDisplay:10.37,2013-09-20 14:18:00,
2013-09-20 09:23:00,63.3,52.6,29.88,North,0,0.0,0.0,68,0.00,BKN,OVC,0.04,WeatherDisplay:10.37,2013-09-20 14:23:00,
2013-09-20 09:28:00,63.3,52.2,29.88,North,0,0.0,0.0,67,0.00,BKN,OVC,0.04,WeatherDisplay:10.37,2013-09-20 14:28:00,
2013-09-20 09:33:00,63.1,52.0,29.88,North,0,0.0,0.0,67,0.00,FEW,OVC,0.04,WeatherDisplay:10.37,2013-09-20 14:33:00,
2013-09-20 09:38:00,63.3,51.8,29.88,North,0,0.0,0.0,66,0.00,FEW,OVC,0.04,WeatherDisplay:10.37,2013-09-20 14:38:00,
2013-09-20 09:43:00,63.3,51.8,29.88,North,0,0.0,0.0,66,0.00,FEW,OVC,0.04,WeatherDisplay:10.37,2013-09-20 14:43:00,
2013-09-20 09:48:00,63.3,51.3,29.88,North,0,0.0,0.0,65,0.00,FEW,OVC,0.04,WeatherDisplay:10.37,2013-09-20 14:48:00,
2013-09-20 09:53:00,63.3,50.9,29.88,North,0,0.0,0.0,64,0.00,FEW,OVC,0.04,WeatherDisplay:10.37,2013-09-20 14:53:00,
2013-09-20 09:58:00,63.1,49.5,29.88,North,0,0.0,0.0,61,0.00,FEW,OVC,0.04,WeatherDisplay:10.37,2013-09-20 14:58:00,
2013-09-20 10:03:00,63.3,48.7,29.88,North,0,0.0,0.0,59,0.00,FEW,OVC,0.04,WeatherDisplay:10.37,2013-09-20 15:03:00,
2013-09-20 10:08:00,63.3,47.8,29.88,North,0,0.0,0.0,57,0.00,FEW,OVC,0.04,WeatherDisplay:10.37,2013-09-20 15:08:00,
2013-09-20 10:13:00,63.7,48.2,29.88,North,0,0.0,0.0,57,0.00,FEW,OVC,0.04,WeatherDisplay:10.37,2013-09-20 15:13:00,
2013-09-20 10:18:00,64.0,48.0,29.88,North,0,0.0,0.0,56,0.00,FEW,OVC,0.04,WeatherDisplay:10.37,2013-09-20 15:18:00,
2013-09-20 10:23:00,64.2,46.7,29.88,North,0,0.0,0.0,53,0.00,FEW,OVC,0.04,WeatherDisplay:10.37,2013-09-20 15:23:00,
2013-09-20 10:28:00,64.8,46.2,29.88,North,0,0.0,0.0,51,0.00,FEW,OVC,0.04,WeatherDisplay:10.37,2013-09-20 15:28:00,
2013-09-20 10:33:00,64.9,45.3,29.88,North,0,0.0,0.0,49,0.00,FEW,OVC,0.04,WeatherDisplay:10.37,2013-09-20 15:33:00,
2013-09-20 10:38:00,65.3,45.1,29.88,North,0,0.0,0.0,48,0.00,FEW,OVC,0.04,WeatherDisplay:10.37,2013-09-20 15:38:00,
2013-09-20 10:43:00,65.7,44.3,29.88,North,0,0.0,0.0,46,0.00,FEW,OVC,0.04,WeatherDisplay:10.37,2013-09-20 15:43:00,
2013-09-20 10:48:00,65.7,42.5,29.88,North,0,0.0,0.0,43,0.00,FEW,OVC,0.04,WeatherDisplay:10.37,2013-09-20 15:48:00,
2013-09-20 10:53:00,65.7,41.3,29.88,North,0,0.0,0.0,41,0.00,FEW,OVC,0.04,WeatherDisplay:10.37,2013-09-20 15:53:00,
2013-09-20 10:58:00,65.7,39.3,29.88,North,0,0.0,0.0,38,0.00,FEW,OVC,0.04,WeatherDisplay:10.37,2013-09-20 15:58:00,
2013-09-20 11:03:00,65.7,38.0,29.88,North,0,0.0,0.0,36,0.00,SCT,OVC,0.04,WeatherDisplay:10.37,2013-09-20 16:03:00,
2013-09-20 11:08:00,66.0,38.3,29.88,North,0,0.0,0.0,36,0.00,SCT,OVC,0.04,WeatherDisplay:10.37,2013-09-20 16:08:00,
2013-09-20 11:13:00,66.6,38.0,29.88,North,0,0.0,0.0,35,0.00,SCT,OVC,0.04,WeatherDisplay:10.37,2013-09-20 16:13:00,
2013-09-20 11:18:00,66.9,37.6,29.88,North,0,0.0,0.0,34,0.00,SCT,OVC,0.04,WeatherDisplay:10.37,2013-09-20 16:18:00,
2013-09-20 11:23:00,67.1,37.0,29.88,North,0,0.0,0.0,33,0.00,SCT,OVC,0.04,WeatherDisplay:10.37,2013-09-20 16:23:00,
2013-09-20 11:29:00,67.3,33.9,29.88,North,0,0.0,0.0,29,0.00,SCT,OVC,0.04,WeatherDisplay:10.37,2013-09-20 16:29:00,
2013-09-20 11:34:00,67.3,33.0,29.88,North,0,0.0,0.0,28,0.00,SCT,OVC,0.04,WeatherDisplay:10.37,2013-09-20 16:34:00,
2013-09-20 11:39:00,67.1,31.0,29.88,North,0,0.0,0.0,26,0.00,SCT,OVC,0.04,WeatherDisplay:10.37,2013-09-20 16:39:00,
2013-09-20 11:44:00,66.9,29.9,29.88,North,0,0.0,0.0,25,0.00,SCT,OVC,0.04,WeatherDisplay:10.37,2013-09-20 16:44:00,
2013-09-20 11:49:00,66.6,28.6,29.88,North,0,0.0,0.0,24,0.00,SCT,OVC,0.04,WeatherDisplay:10.37,2013-09-20 16:49:00,
2013-09-20 11:54:00,66.4,27.4,29.88,North,0,0.0,0.0,23,0.00,SCT,OVC,0.04,WeatherDisplay:10.37,2013-09-20 16:54:00,
2013-09-20 11:59:00,66.2,28.3,29.88,North,0,0.0,0.0,24,0.00,SCT,OVC,0.04,WeatherDisplay:10.37,2013-09-20 16:59:00,
2013-09-20 12:04:00,66.4,28.5,29.88,North,0,0.0,0.0,24,0.00,SCT,OVC,0.04,WeatherDisplay:10.37,2013-09-20 17:04:00,
2013-09-20 12:09:00,66.2,28.3,29.88,North,0,0.0,0.0,24,0.00,SCT,OVC,0.04,WeatherDisplay:10.37,2013-09-20 17:09:00,
2013-09-20 12:14:00,66.6,28.6,29.88,North,0,0.0,0.0,24,0.00,SCT,OVC,0.04,WeatherDisplay:10.37,2013-09-20 17:14:00,
2013-09-20 12:19:00,67.6,29.5,29.88,North,0,0.0,0.0,24,0.00,CLR,OVC,0.04,WeatherDisplay:10.37,2013-09-20 17:19:00,
2013-09-20 12:24:00,68.4,28.0,29.88,North,0,0.0,0.0,22,0.00,CLR,OVC,0.04,WeatherDisplay:10.37,2013-09-20 17:24:00,
2013-09-20 12:29:00,68.4,25.7,29.88,North,0,0.0,0.0,20,0.00,CLR,OVC,0.04,WeatherDisplay:10.37,2013-09-20 17:29:00,
2013-09-20 12:34:00,68.0,18.6,29.88,North,0,0.0,0.0,15,0.00,CLR,OVC,0.04,WeatherDisplay:10.37,2013-09-20 17:34:00,
2013-09-20 12:39:00,67.8,18.4,29.88,North,0,0.0,0.0,15,0.00,CLR,OVC,0.04,WeatherDisplay:10.37,2013-09-20 17:39:00,
2013-09-20 12:44:00,68.0,18.6,29.88,North,0,0.0,0.0,15,0.00,CLR,OVC,0.04,WeatherDisplay:10.37,2013-09-20 17:44:00,
2013-09-20 12:49:00,68.2,18.7,29.88,North,0,0.0,0.0,15,0.00,CLR,OVC,0.04,WeatherDisplay:10.37,2013-09-20 17:49:00,
2013-09-20 12:54:00,68.2,18.7,29.88,North,0,0.0,0.0,15,0.00,CLR,OVC,0.04,WeatherDisplay:10.37,2013-09-20 17:54:00,
2013-09-20 12:59:00,68.5,19.0,29.88,North,0,0.0,0.0,15,0.00,CLR,OVC,0.04,WeatherDisplay:10.37,2013-09-20 17:59:00,
2013-09-20 13:04:00,68.7,19.1,29.88,North,0,0.0,0.0,15,0.00,CLR,OVC,0.04,WeatherDisplay:10.37,2013-09-20 18:04:00,
2013-09-20 13:09:00,68.9,19.3,29.88,North,0,0.0,0.0,15,0.00,CLR,OVC,0.04,WeatherDisplay:10.37,2013-09-20 18:09:00,
2013-09-20 13:14:00,69.3,19.6,29.88,North,0,0.0,0.0,15,0.00,CLR,OVC,0.04,WeatherDisplay:10.37,2013-09-20 18:14:00,
2013-09-20 13:19:00,69.4,19.7,29.88,North,0,0.0,0.0,15,0.00,CLR,OVC,0.04,WeatherDisplay:10.37,2013-09-20 18:19:00,
2013-09-20 13:24:00,69.4,14.6,29.88,North,0,0.0,0.0,12,0.00,CLR,OVC,0.04,WeatherDisplay:10.37,2013-09-20 18:24:00,
2013-09-20 13:29:00,69.4,14.6,29.88,North,0,0.0,0.0,12,0.00,CLR,OVC,0.04,WeatherDisplay:10.37,2013-09-20 18:29:00,
2013-09-20 13:34:00,69.6,14.7,29.88,North,0,0.0,0.0,12,0.00,CLR,OVC,0.04,WeatherDisplay:10.37,2013-09-20 18:34:00,
2013-09-20 13:39:00,69.8,14.8,29.88,North,0,0.0,0.0,12,0.00,CLR,OVC,0.04,WeatherDisplay:10.37,2013-09-20 18:39:00,
2013-09-20 13:44:00,69.6,10.6,29.88,North,0,0.0,0.0,10,0.00,CLR,OVC,0.04,WeatherDisplay:10.37,2013-09-20 18:44:00,
2013-09-20 13:49:00,69.3,10.3,29.88,North,0,0.0,0.0,10,0.00,CLR,OVC,0.04,WeatherDisplay:10.37,2013-09-20 18:49:00,
2013-09-20 13:54:00,69.1,10.1,29.88,North,0,0.0,0.0,10,0.00,CLR,OVC,0.04,WeatherDisplay:10.37,2013-09-20 18:54:00,
2013-09-20 13:59:00,68.9,10.0,29.88,North,0,0.0,0.0,10,0.00,CLR,OVC,0.04,WeatherDisplay:10.37,2013-09-20 18:59:00,
2013-09-20 14:04:00,68.9,10.0,29.88,North,0,0.0,0.0,10,0.00,CLR,OVC,0.04,WeatherDisplay:10.37,2013-09-20 19:04:00,
2013-09-20 14:09:00,69.1,10.1,29.88,North,0,0.0,0.0,10,0.00,CLR,OVC,0.04,WeatherDisplay:10.37,2013-09-20 19:09:00,
2013-09-20 14:14:00,68.9,10.0,29.88,North,0,0.0,0.0,10,0.00,CLR,OVC,0.04,WeatherDisplay:10.37,2013-09-20 19:14:00,
2013-09-20 14:19:00,69.1,10.1,29.88,North,0,0.0,0.0,10,0.00,CLR,OVC,0.04,WeatherDisplay:10.37,2013-09-20 19:19:00,
2013-09-20 14:24:00,69.1,10.1,29.88,North,0,0.0,0.0,10,0.00,CLR,OVC,0.04,WeatherDisplay:10.37,2013-09-20 19:24:00,
2013-09-20 14:29:00,69.3,10.3,29.88,North,0,0.0,0.0,10,0.00,CLR,OVC,0.04,WeatherDisplay:10.37,2013-09-20 19:29:00,
2013-09-20 14:34:00,69.6,10.6,29.88,North,0,0.0,0.0,10,0.00,CLR,OVC,0.04,WeatherDisplay:10.37,2013-09-20 19:34:00,
2013-09-20 14:39:00,70.0,8.5,29.88,North,0,0.0,0.0,9,0.00,CLR,OVC,0.04,WeatherDisplay:10.37,2013-09-20 19:39:00,
2013-09-20 14:44:00,70.0,8.5,29.88,North,0,0.0,0.0,9,0.00,CLR,OVC,0.04,WeatherDisplay:10.37,2013-09-20 19:44:00,
2013-09-20 14:49:00,69.6,10.6,29.88,North,0,0.0,0.0,10,0.00,CLR,OVC,0.04,WeatherDisplay:10.37,2013-09-20 19:49:00,
2013-09-20 14:54:00,69.6,10.6,29.88,North,0,0.0,0.0,10,0.00,CLR,OVC,0.04,WeatherDisplay:10.37,2013-09-20 19:54:00,
2013-09-20 14:59:00,69.3,10.3,29.88,North,0,0.0,0.0,10,0.00,CLR,OVC,0.04,WeatherDisplay:10.37,2013-09-20 19:59:00,
2013-09-20 15:04:00,69.1,10.1,29.88,North,0,0.0,0.0,10,0.00,CLR,OVC,0.04,WeatherDisplay:10.37,2013-09-20 20:04:00,
2013-09-20 15:09:00,68.9,10.0,29.88,North,0,0.0,0.0,10,0.00,CLR,OVC,0.04,WeatherDisplay:10.37,2013-09-20 20:09:00,
2013-09-20 15:14:00,68.7,9.9,29.88,North,0,0.0,0.0,10,0.00,CLR,OVC,0.04,WeatherDisplay:10.37,2013-09-20 20:14:00,
2013-09-20 15:19:00,68.4,9.6,29.88,North,0,0.0,0.0,10,0.00,CLR,OVC,0.04,WeatherDisplay:10.37,2013-09-20 20:19:00,
2013-09-20 15:24:00,67.8,9.2,29.88,North,0,0.0,0.0,10,0.00,CLR,OVC,0.04,WeatherDisplay:10.37,2013-09-20 20:24:00,
2013-09-20 15:29:00,67.3,12.9,29.88,North,0,0.0,0.0,12,0.00,CLR,OVC,0.04,WeatherDisplay:10.37,2013-09-20 20:29:00,
2013-09-20 15:34:00,67.1,12.7,29.88,North,0,0.0,0.0,12,0.00,CLR,OVC,0.04,WeatherDisplay:10.37,2013-09-20 20:34:00,
2013-09-20 15:39:00,66.9,12.6,29.88,North,0,0.0,0.0,12,0.00,CLR,OVC,0.04,WeatherDisplay:10.37,2013-09-20 20:39:00,
2013-09-20 15:44:00,66.7,12.4,29.88,North,0,0.0,0.0,12,0.00,CLR,OVC,0.04,WeatherDisplay:10.37,2013-09-20 20:44:00,
2013-09-20 15:49:00,66.7,12.4,29.88,North,0,0.0,0.0,12,0.00,CLR,OVC,0.04,WeatherDisplay:10.37,2013-09-20 20:49:00,
2013-09-20 15:54:00,66.6,12.3,29.88,North,0,0.0,0.0,12,0.00,CLR,OVC,0.04,WeatherDisplay:10.37,2013-09-20 20:54:00,
2013-09-20 15:59:00,66.6,12.3,29.88,North,0,0.0,0.0,12,0.00,CLR,OVC,0.04,WeatherDisplay:10.37,2013-09-20 20:59:00,
2013-09-20 16:04:00,66.4,12.2,29.88,North,0,0.0,0.0,12,0.00,FEW,OVC,0.04,WeatherDisplay:10.37,2013-09-20 21:04:00,
2013-09-20 16:09:00,66.2,12.0,29.88,North,0,0.0,0.0,12,0.00,FEW,OVC,0.04,WeatherDisplay:10.37,2013-09-20 21:09:00,
2013-09-20 16:14:00,66.0,13.7,29.88,North,0,0.0,0.0,13,0.00,FEW,OVC,0.04,WeatherDisplay:10.37,2013-09-20 21:14:00,
2013-09-20 16:19:00,65.8,13.6,29.88,North,0,0.0,0.0,13,0.00,FEW,OVC,0.04,WeatherDisplay:10.37,2013-09-20 21:19:00,
2013-09-20 16:24:00,65.7,13.4,29.88,North,0,0.0,0.0,13,0.00,FEW,OVC,0.04,WeatherDisplay:10.37,2013-09-20 21:24:00,
2013-09-20 16:29:00,65.7,13.4,29.88,North,0,0.0,0.0,13,0.00,FEW,OVC,0.04,WeatherDisplay:10.37,2013-09-20 21:29:00,
2013-09-20 16:34:00,65.7,13.4,29.88,North,0,0.0,0.0,13,0.00,FEW,OVC,0.04,WeatherDisplay:10.37,2013-09-20 21:34:00,
2013-09-20 16:39:00,65.7,13.4,29.88,North,0,0.0,0.0,13,0.00,FEW,OVC,0.04,WeatherDisplay:10.37,2013-09-20 21:39:00,
2013-09-20 16:44:00,65.7,13.4,29.88,North,0,0.0,0.0,13,0.00,FEW,OVC,0.04,WeatherDisplay:10.37,2013-09-20 21:44:00,
2013-09-20 16:49:00,65.5,13.3,29.88,North,0,0.0,0.0,13,0.00,FEW,OVC,0.04,WeatherDisplay:10.37,2013-09-20 21:49:00,
2013-09-20 16:54:00,65.3,13.1,29.88,North,0,0.0,0.0,13,0.00,FEW,OVC,0.04,WeatherDisplay:10.37,2013-09-20 21:54:00,
2013-09-20 16:59:00,65.1,13.0,29.88,North,0,0.0,0.0,13,0.00,FEW,OVC,0.04,WeatherDisplay:10.37,2013-09-20 21:59:00,
2013-09-20 17:04:00,64.9,12.8,29.88,North,0,0.0,0.0,13,0.00,SCT,OVC,0.04,WeatherDisplay:10.37,2013-09-20 22:04:00,
2013-09-20 17:09:00,64.8,16.0,29.88,North,0,0.0,0.0,15,0.00,SCT,OVC,0.04,WeatherDisplay:10.37,2013-09-20 22:09:00,
2013-09-20 17:14:00,64.6,15.8,29.88,North,0,0.0,0.0,15,0.00,SCT,OVC,0.04,WeatherDisplay:10.37,2013-09-20 22:14:00,
2013-09-20 17:19:00,64.6,15.8,29.88,North,0,0.0,0.0,15,0.00,SCT,OVC,0.04,WeatherDisplay:10.37,2013-09-20 22:19:00,
2013-09-20 17:24:00,64.4,15.7,29.88,North,0,0.0,0.0,15,0.00,SCT,OVC,0.04,WeatherDisplay:10.37,2013-09-20 22:24:00,
2013-09-20 17:29:00,64.4,15.7,29.88,North,0,0.0,0.0,15,0.00,SCT,OVC,0.04,WeatherDisplay:10.37,2013-09-20 22:29:00,
2013-09-20 17:34:00,64.6,15.8,29.88,North,0,0.0,0.0,15,0.00,SCT,OVC,0.04,WeatherDisplay:10.37,2013-09-20 22:34:00,
2013-09-20 17:39:00,64.6,15.8,29.88,North,0,0.0,0.0,15,0.00,SCT,OVC,0.04,WeatherDisplay:10.37,2013-09-20 22:39:00,
2013-09-20 17:44:00,64.6,15.8,29.88,North,0,0.0,0.0,15,0.00,SCT,OVC,0.04,WeatherDisplay:10.37,2013-09-20 22:44:00,
2013-09-20 17:49:00,64.4,15.7,29.88,North,0,0.0,0.0,15,0.00,SCT,OVC,0.04,WeatherDisplay:10.37,2013-09-20 22:49:00,
2013-09-20 17:54:00,64.4,15.7,29.88,North,0,0.0,0.0,15,0.00,SCT,OVC,0.04,WeatherDisplay:10.37,2013-09-20 22:54:00,
2013-09-20 17:59:00,64.6,20.1,29.88,North,0,0.0,0.0,18,0.00,SCT,OVC,0.04,WeatherDisplay:10.37,2013-09-20 22:59:00,
2013-09-20 18:04:00,64.4,15.7,29.88,North,0,0.0,0.0,15,0.00,BKN,OVC,0.04,WeatherDisplay:10.37,2013-09-20 23:04:00,
2013-09-20 18:09:00,64.4,15.7,29.88,North,0,0.0,0.0,15,0.00,BKN,OVC,0.04,WeatherDisplay:10.37,2013-09-20 23:09:00,
2013-09-20 18:14:00,64.2,17.0,29.88,North,0,0.0,0.0,16,0.00,BKN,OVC,0.04,WeatherDisplay:10.37,2013-09-20 23:14:00,
2013-09-20 18:19:00,63.9,16.7,29.88,North,0,0.0,0.0,16,0.00,BKN,OVC,0.04,WeatherDisplay:10.37,2013-09-20 23:19:00,
2013-09-20 18:24:00,63.7,16.6,29.88,North,0,0.0,0.0,16,0.00,BKN,OVC,0.04,WeatherDisplay:10.37,2013-09-20 23:24:00,
2013-09-20 18:29:00,63.3,16.3,29.88,North,0,0.0,0.0,16,0.00,BKN,OVC,0.04,WeatherDisplay:10.37,2013-09-20 23:29:00,
2013-09-20 18:34:00,63.1,16.2,29.88,North,0,0.0,0.0,16,0.00,BKN,OVC,0.04,WeatherDisplay:10.37,2013-09-20 23:34:00,
2013-09-20 18:39:00,63.1,16.2,29.88,North,0,0.0,0.0,16,0.00,BKN,OVC,0.04,WeatherDisplay:10.37,2013-09-20 23:39:00,
2013-09-20 18:44:00,63.0,18.7,29.88,North,0,0.0,0.0,18,0.00,BKN,OVC,0.04,WeatherDisplay:10.37,2013-09-20 23:44:00,
2013-09-20 18:49:00,62.8,18.6,29.88,North,0,0.0,0.0,18,0.00,BKN,OVC,0.04,WeatherDisplay:10.37,2013-09-20 23:49:00,
2013-09-20 18:54:00,62.6,18.4,29.88,North,0,0.0,0.0,18,0.00,BKN,OVC,0.04,WeatherDisplay:10.37,2013-09-20 23:54:00,
2013-09-20 18:59:00,62.6,22.1,29.88,North,0,0.0,0.0,21,0.00,BKN,OVC,0.04,WeatherDisplay:10.37,2013-09-20 23:59:00,
2013-09-20 19:04:00,62.4,21.9,29.88,North,0,0.0,0.0,21,0.00,OVC,,0.04,WeatherDisplay:10.37,2013-09-21 00:04:00,
2013-09-20 19:09:00,62.4,25.1,29.88,North,0,0.0,0.0,24,0.00,OVC,,0.04,WeatherDisplay:10.37,2013-09-21 00:09:00,
2013-09-20 19:14:00,62.2,25.0,29.88,North,0,0.0,0.0,24,0.00,OVC,,0.04,WeatherDisplay:10.37,2013-09-21 00:14:00,
2013-09-20 19:19:00,62.2,25.0,29.88,North,0,0.0,0.0,24,0.00,OVC,,0.04,WeatherDisplay:10.37,2013-09-21 00:19:00,
2013-09-20 19:24:00,62.2,25.0,29.88,North,0,0.0,0.0,24,0.00,OVC,,0.04,WeatherDisplay:10.37,2013-09-21 00:24:00,
2013-09-20 19:29:00,62.2,25.0,29.88,North,0,0.0,0.0,24,0.00,OVC,,0.04,WeatherDisplay:10.37,2013-09-21 00:29:00,
2013-09-20 19:34:00,62.1,24.8,29.88,North,0,0.0,0.0,24,0.00,OVC,,0.04,WeatherDisplay:10.37,2013-09-21 00:34:00,
2013-09-20 19:39:00,62.1,25.8,29.88,North,0,0.0,0.0,25,0.00,OVC,,0.04,WeatherDisplay:10.37,2013-09-21 00:39:00,
2013-09-20 19:44:00,62.1,24.8,29.88,North,0,0.0,0.0,24,0.00,OVC,,0.04,WeatherDisplay:10.37,2013-09-21 00:44:00,
2013-09-20 19:49:00,62.1,24.8,29.88,North,0,0.0,0.0,24,0.00,OVC,,0.04,WeatherDisplay:10.37,2013-09-21 00:49:00,
2013-09-20 19:54:00,62.1,25.8,29.88,North,0,0.0,0.0,25,0.00,OVC,,0.04,WeatherDisplay:10.37,2013-09-21 00:54:00,
2013-09-20 19:59:00,62.1,25.8,29.88,North,0,0.0,0.0,25,0.00,OVC,,0.04,WeatherDisplay:10.37,2013-09-21 00:59:00,
2013-09-20 20:04:00,61.9,25.6,29.88,North,0,0.0,0.0,25,0.00,OVC,,0.04,WeatherDisplay:10.37,2013-09-21 01:04:00,
2013-09-20 20:09:00,61.9,25.6,29.88,North,0,0.0,0.0,25,0.00,OVC,,0.04,WeatherDisplay:10.37,2013-09-21 01:09:00,
2013-09-20 20:14:00,61.9,25.6,29.88,North,0,0.0,0.0,25,0.00,OVC,,0.04,WeatherDisplay:10.37,2013-09-21 01:14:00,
2013-09-20 20:19:00,61.9,25.6,29.88,North,0,0.0,0.0,25,0.00,OVC,,0.04,WeatherDisplay:10.37,2013-09-21 01:19:00,
2013-09-20 20:24:00,61.7,25.5,29.88,North,0,0.0,0.0,25,0.00,OVC,,0.04,WeatherDisplay:10.37,2013-09-21 01:24:00,
2013-09-20 20:29:00,61.7,25.5,29.85,North,0,0.0,0.0,25,0.00,OVC,,0.04,WeatherDisplay:10.37,2013-09-21 01:29:00,
2013-09-20 20:34:00,61.7,25.5,29.85,North,0,0.0,0.0,25,0.00,OVC,,0.04,WeatherDisplay:10.37,2013-09-21 01:34:00,
2013-09-20 20:39:00,61.5,25.3,29.85,North,0,0.0,0.0,25,0.00,OVC,,0.04,WeatherDisplay:10.37,2013-09-21 01:39:00,
2013-09-20 20:44:00,61.5,26.3,29.85,North,0,0.0,0.0,26,0.00,OVC,,0.04,WeatherDisplay:10.37,2013-09-21 01:44:00,
2013-09-20 20:49:00,61.3,26.1,29.85,North,0,0.0,0.0,26,0.00,OVC,,0.04,WeatherDisplay:10.37,2013-09-21 01:49:00,
2013-09-20 20:54:00,61.3,26.1,29.85,North,0,0.0,0.0,26,0.00,OVC,,0.04,WeatherDisplay:10.37,2013-09-21 01:54:00,
2013-09-20 20:59:00,61.2,26.0,29.85,North,0,0.0,0.0,26,0.00,OVC,,0.04,WeatherDisplay:10.37,2013-09-21 01:59:00,
2013-09-20 21:04:00,61.0,25.8,29.85,North,0,0.0,0.0,26,0.00,OVC,,0.04,WeatherDisplay:10.37,2013-09-21 02:04:00,
2013-09-20 21:09:00,60.6,26.4,29.85,North,0,0.0,0.0,27,0.00,OVC,,0.04,WeatherDisplay:10.37,2013-09-21 02:09:00,
2013-09-20 21:14:00,60.4,26.3,29.85,North,0,0.0,0.0,27,0.00,OVC,,0.04,WeatherDisplay:10.37,2013-09-21 02:14:00,
2013-09-20 21:19:00,60.1,26.0,29.85,North,0,0.0,0.0,27,0.00,OVC,,0.04,WeatherDisplay:10.37,2013-09-21 02:19:00,
2013-09-20 21:24:00,59.7,26.5,29.85,North,0,0.0,0.0,28,0.00,OVC,,0.04,WeatherDisplay:10.37,2013-09-21 02:24:00,
2013-09-20 21:29:00,59.5,26.4,29.88,North,0,0.0,0.0,28,0.00,OVC,,0.04,WeatherDisplay:10.37,2013-09-21 02:29:00,
2013-09-20 21:34:00,59.4,26.2,29.88,North,0,0.0,0.0,28,0.00,OVC,,0.04,WeatherDisplay:10.37,2013-09-21 02:34:00,
2013-09-20 21:39:00,59.2,26.9,29.88,North,0,0.0,0.0,29,0.00,OVC,,0.04,WeatherDisplay:10.37,2013-09-21 02:39:00,
2013-09-20 21:44:00,59.0,27.6,29.88,North,0,0.0,0.0,30,0.00,OVC,,0.04,WeatherDisplay:10.37,2013-09-21 02:44:00,
2013-09-20 21:49:00,58.8,28.2,29.88,North,0,0.0,0.0,31,0.00,OVC,,0.04,WeatherDisplay:10.37,2013-09-21 02:49:00,
2013-09-20 21:54:00,58.8,29.0,29.88,North,0,0.0,0.0,32,0.00,OVC,,0.04,WeatherDisplay:10.37,2013-09-21 02:54:00,
2013-09-20 21:59:00,58.8,29.7,29.88,North,0,0.0,0.0,33,0.00,OVC,,0.04,WeatherDisplay:10.37,2013-09-21 02:59:00,
2013-09-20 22:04:00,58.8,29.7,29.88,North,0,0.0,0.0,33,0.00,OVC,,0.04,WeatherDisplay:10.37,2013-09-21 03:04:00,
2013-09-20 22:09:00,58.8,30.5,29.88,North,0,0.0,0.0,34,0.00,OVC,,0.04,WeatherDisplay:10.37,2013-09-21 03:09:00,
2013-09-20 22:14:00,58.8,30.5,29.88,North,0,0.0,0.0,34,0.00,OVC,,0.04,WeatherDisplay:10.37,2013-09-21 03:14:00,
2013-09-20 22:19:00,58.6,31.0,29.88,North,0,0.0,0.0,35,0.00,OVC,,0.04,WeatherDisplay:10.37,2013-09-21 03:19:00,
2013-09-20 22:24:00,58.8,31.2,29.88,North,0,0.0,0.0,35,0.00,OVC,,0.04,WeatherDisplay:10.37,2013-09-21 03:24:00,
2013-09-20 22:29:00,58.8,31.2,29.88,North,0,0.0,0.0,35,0.00,OVC,,0.04,WeatherDisplay:10.37,2013-09-21 03:29:00,
2013-09-20 22:34:00,59.0,31.4,29.88,North,0,0.0,0.0,35,0.00,OVC,,0.04,WeatherDisplay:10.37,2013-09-21 03:34:00,
2013-09-20 22:39:00,59.0,31.4,29.88,North,0,0.0,0.0,35,0.00,OVC,,0.04,WeatherDisplay:10.37,2013-09-21 03:39:00,
2013-09-20 22:44:00,59.2,31.5,29.88,North,0,0.0,0.0,35,0.00,OVC,,0.04,WeatherDisplay:10.37,2013-09-21 03:44:00,
2013-09-20 22:49:00,59.4,31.0,29.88,North,0,0.0,0.0,34,0.00,OVC,,0.04,WeatherDisplay:10.37,2013-09-21 03:49:00,
2013-09-20 22:54:00,59.4,31.0,29.88,North,0,0.0,0.0,34,0.00,OVC,,0.04,WeatherDisplay:10.37,2013-09-21 03:54:00,
2013-09-20 22:59:00,59.4,31.0,29.88,North,0,0.0,0.0,34,0.00,OVC,,0.04,WeatherDisplay:10.37,2013-09-21 03:59:00,
2013-09-20 23:01:00,59.4,31.0,29.88,North,0,0.0,0.0,34,0.00,SCT,OVC,0.04,WeatherDisplay:10.37,2013-09-21 04:01:00,
2013-09-20 23:02:00,59.4,31.0,29.88,North,0,0.0,0.0,34,0.00,SCT,OVC,0.04,WeatherDisplay:10.37,2013-09-21 04:02:00,
2013-09-20 23:03:00,59.4,31.0,29.88,North,0,0.0,0.0,34,0.00,SCT,OVC,0.04,WeatherDisplay:10.37,2013-09-21 04:03:00,
2013-09-20 23:08:00,59.2,30.1,29.88,North,0,0.0,0.0,33,0.00,SCT,OVC,0.04,WeatherDisplay:10.37,2013-09-21 04:08:00,
2013-09-20 23:13:00,59.2,29.3,29.88,North,0,0.0,0.0,32,0.00,SCT,OVC,0.04,WeatherDisplay:10.37,2013-09-21 04:13:00,
2013-09-20 23:18:00,59.0,29.2,29.88,North,0,0.0,0.0,32,0.00,SCT,OVC,0.04,WeatherDisplay:10.37,2013-09-21 04:18:00,
2013-09-20 23:23:00,59.0,28.4,29.88,North,0,0.0,0.0,31,0.00,SCT,OVC,0.04,WeatherDisplay:10.37,2013-09-21 04:23:00,
2013-09-20 23:28:00,58.8,29.0,29.88,North,0,0.0,0.0,32,0.00,SCT,OVC,0.04,WeatherDisplay:10.37,2013-09-21 04:28:00,
2013-09-20 23:33:00,58.8,28.2,29.88,North,0,0.0,0.0,31,0.00,SCT,OVC,0.04,WeatherDisplay:10.37,2013-09-21 04:33:00,
2013-09-20 23:38:00,58.6,28.1,29.88,North,0,0.0,0.0,31,0.00,SCT,OVC,0.04,WeatherDisplay:10.37,2013-09-21 04:38:00,
2013-09-20 23:43:00,58.6,28.1,29.88,North,0,0.0,0.0,31,0.00,SCT,OVC,0.04,WeatherDisplay:10.37,2013-09-21 04:43:00,
2013-09-20 23:48:00,58.5,27.1,29.88,North,0,0.0,0.0,30,0.00,SCT,OVC,0.04,WeatherDisplay:10.37,2013-09-21 04:48:00,
2013-09-20 23:54:00,58.3,27.7,29.88,North,0,0.0,0.0,31,0.00,SCT,OVC,0.04,WeatherDisplay:10.37,2013-09-21 04:54:00,
2013-09-20 23:59:00,58.1,27.6,29.88,North,0,0.0,0.0,31,0.00,SCT,OVC,0.04,WeatherDisplay:10.37,2013-09-21 04:59:00,